Location: Unspecified
(0.0000°N, 0.0000°E)
Time: 02:32:53
(UTC+00:00)

LightSail 2 - Visible Passes

Search period start: 18 August 2019 00:00
Search period end: 28 August 2019 00:00
Orbit: 702 x 731 km, 24.0° (Epoch: 16 August)

Date Brightness Start Highest point End Pass type
(mag) Time Alt. Az. Time Alt. Az. Time Alt. Az.
18 Aug 7.3 03:32:57 22° NE 03:32:57 22° NE 03:35:43 10° ENE visible
18 Aug 5.2 05:12:02 10° WNW 05:17:13 90° NE 05:22:28 10° ESE visible
18 Aug 7.6 19:24:25 10° WNW 19:27:30 16° NNW 19:30:33 10° NNE visible
19 Aug 5.4 04:19:19 52° NNW 04:20:17 62° NNE 04:25:26 10° ESE visible
19 Aug 7.4 18:26:33 10° WNW 18:30:27 22° NNW 18:34:20 10° NNE visible
20 Aug 7.5 03:26:33 20° E 03:26:33 20° E 03:28:14 10° E visible
20 Aug 5.5 05:05:39 20° W 05:08:56 48° SSW 05:13:58 10° SE visible
21 Aug 5.4 04:12:49 58° SSE 04:12:49 58° SSE 04:17:09 10° ESE visible
22 Aug 8.0 03:19:56 11° ESE 03:19:56 11° ESE 03:20:11 10° ESE visible
22 Aug 6.3 04:59:00 22° SW 05:00:40 27° SSW 05:05:03 10° SE visible
23 Aug 6.8 04:06:02 24° SSE 04:06:02 24° SSE 04:08:26 10° SE visible
24 Aug 6.9 04:52:01 16° SSW 04:52:30 16° SSW 04:55:37 10° SSE visible
25 Aug 7.6 03:58:51 12° SSE 03:58:51 12° SSE 03:59:19 10° SSE visible
